TURKMENALEM52E/MONACOSAT

Last updated on Mon Sep 15 2025 00:02:48 GMT+0000 (Coordinated Universal Time)

1 40617U 15023A 25257.21503095 .00000092 00000+0 00000+0 0 9994 2 40617 0.0291 105.6721 0002856 76.8785 300.3123 1.00272547 38085
UTC large
Height (km)
Speed (km/s)
/
Latitude / Longitude
Inclination (degrees)
Orbital Period (minutes)
Azimuth
Elevation
Range (km)
Doppler Factor

Next 0 passes for location: London (51.5072 / 0.1276)

Sorry there are no passes over London.